sat.trackr.live / text

‹ back to catalog

ZHONGXING-10R

NORAD 63075 · 2025-036A

PAYLOAD ACTIVE UNKNOWN

§ Identity

Operator
Country
PRC
Launch date
2025-02-22
Launch site
XICLF
Launch vehicle
Mass (kg)
RCS (m²)

Purposes: comms

External: N2YO · Heavens-Above · Gunter

§ Orbital elements

Epoch: 2026-05-25T00:50:51.266112Z

Period
1,436.12 min
Inclination
0.0112°
Eccentricity
0.0002873
Mean motion
1.00269867 rev/d
Perigee alt
35,775.0 km
Apogee alt
35,799.2 km
Semi-major
42,165.3 km
B*
0.0000e+0
RAAN
231.6736°
Arg perigee
258.9501°
Mean anomaly
235.2274°
Rev number
472

§ Raw data

ZHONGXING-10R1 63075U 25036A   26145.03531558 -.00000355  00000+0  00000+0 0  99972 63075   0.0112 231.6736 0002873 258.9501 235.2274  1.00269867  4722

JSON: /api/v1/satellites/63075 · /tle

For live sub-satellite position, see the globe view (requires WebGL).

§ Visibility from observer

Set your observer location to see the next 7 days of passes ≥ 10°. The values pass through the URL so the page stays shareable.

No JS? Fill the form by hand. The geolocation button needs JavaScript.